Weather History for KTBN - May, 2014

Change the Weather History Date:

Monday, May 26, 2014

  Actual Average Record
Temperature  
Mean Temperature 74 °F -  
Max Temperature 83 °F 75 °F 95 °F (2012)
Min Temperature 64 °F 58 °F 48 °F (1999)
Cooling Degree Days 8    
Growing Degree Days 24 (Base 50)    
Moisture  
Dew Point 68 °F    
Average Humidity 84    
Maximum Humidity 100    
Minimum Humidity 57    
Precipitation  
Precipitation 0.09 in - - ()
Sea Level Pressure  
Sea Level Pressure 30.03 in    
Wind  
Wind Speed 6 mph (SW)    
Max Wind Speed 23 mph    
Max Gust Speed 39 mph    
Visibility 8 miles    
Events Fog , Rain , Thunderstorm    
Averages and records for this station are not official NWS values.
T = Trace of Precipitation, MM = Missing Value Source: NWS Daily Summary

Daily Weather History Graph

Daily Weather History Graph

Search for Another Location

Airport or City:

Trip Planner

Search our weather history database for the weather conditions in past years. The results will help you decide how hot, cold, wet, or windy it might be!

Date:

Astronomy

May. 26, 2014 Rise Set
Actual Time 5:51 AM CDT 8:20 PM CDT
Civil Twilight 5:20 AM CDT 8:50 PM CDT
Nautical Twilight 4:43 AM CDT 9:28 PM CDT
Astronomical Twilight 4:01 AM CDT 10:10 PM CDT
Moon 4:30 AM CDT (5/26) 6:25 PM CDT (5/26)
Length of Visible Light 15h 29m
Length of Day
14h 29m
Waning Crescent, 5% of the Moon is Illuminated
May 26
Waning Crescent
May 28
New
Jun 5
First Quarter
Jun 12
Full
Jun 19
Last Quarter

Hourly Weather History & Observations

Time (CDT) Temp. Heat Index Dew Point Humidity Pressure Visibility Wind Dir Wind Speed Gust Speed Precip Events Conditions
12:58 AM 68.0 °F - 65.5 °F 92% 30.02 in 10.0 mi SE 6.9 mph - N/A   Clear
1:58 AM 66.7 °F - 65.1 °F 95% 30.02 in 10.0 mi SSE 4.6 mph - N/A   Clear
2:58 AM 67.5 °F - 65.3 °F 93% 30.01 in 10.0 mi South 3.5 mph - N/A   Clear
3:58 AM 66.6 °F - 65.5 °F 96% 30.01 in 10.0 mi South 4.6 mph - N/A   Partly Cloudy
4:58 AM 66.7 °F - 66.0 °F 98% 30.02 in 10.0 mi South 4.6 mph - N/A   Clear
5:58 AM 64.0 °F - 64.0 °F 100% 30.03 in 10.0 mi South 3.5 mph - N/A   Clear
6:58 AM 65.3 °F - 65.3 °F 100% 30.05 in 10.0 mi South 4.6 mph - N/A   Clear
7:58 AM 71.6 °F - 68.4 °F 89% 30.05 in 10.0 mi Variable 3.5 mph - N/A   Clear
8:58 AM 77.2 °F - 69.3 °F 76% 30.06 in 10.0 mi Variable 4.6 mph - N/A   Clear
9:58 AM 80.2 °F 83.5 °F 70.2 °F 71% 30.07 in 10.0 mi Variable 4.6 mph - N/A   Scattered Clouds
10:58 AM 80.8 °F 83.9 °F 69.3 °F 68% 30.07 in 10.0 mi Variable 5.8 mph - N/A   Scattered Clouds
11:58 AM 81.5 °F 84.9 °F 69.8 °F 67% 30.06 in 10.0 mi SW 8.1 mph - N/A   Mostly Cloudy
12:58 PM 81.9 °F 85.2 °F 69.1 °F 65% 30.04 in 10.0 mi WSW 5.8 mph - N/A   Mostly Cloudy
1:28 PM 80.6 °F 83.9 °F 69.8 °F 70% 30.05 in 10.0 mi Variable 6.9 mph - N/A Rain , Thunderstorm Light Rain
1:40 PM 78.8 °F - 68.0 °F 69% 30.05 in 10.0 mi Variable 3.5 mph - N/A Thunderstorm Mostly Cloudy
1:47 PM 80.6 °F 83.2 °F 68.0 °F 65% 30.04 in 10.0 mi Variable 2.3 mph - N/A Thunderstorm Thunderstorm
1:58 PM 81.1 °F 84.0 °F 68.5 °F 65% 30.02 in 10.0 mi WSW 2.3 mph - 0.00 in Thunderstorm Thunderstorm
2:02 PM 80.6 °F 83.9 °F 69.8 °F 70% 30.04 in 10.0 mi Variable 1.2 mph - N/A Thunderstorm Mostly Cloudy
2:58 PM 81.9 °F 85.4 °F 69.6 °F 66% 30.01 in 10.0 mi Variable 5.8 mph - N/A   Partly Cloudy
3:58 PM 82.0 °F 84.5 °F 66.7 °F 60% 30.00 in 10.0 mi Variable 6.9 mph - N/A   Partly Cloudy
4:58 PM 83.1 °F 85.4 °F 66.2 °F 57% 29.99 in 10.0 mi Variable 2.3 mph - N/A Thunderstorm Scattered Clouds
5:00 PM 82.4 °F 84.6 °F 66.2 °F 58% 30.01 in 7.0 mi South 4.6 mph - N/A Rain , Thunderstorm Light Rain
5:05 PM 80.6 °F 84.6 °F 71.6 °F 74% 30.01 in 2.0 mi WSW 9.2 mph - N/A Rain , Thunderstorm Heavy Rain
5:06 PM 80.6 °F 84.6 °F 71.6 °F 74% 30.01 in 2.0 mi West 8.1 mph - N/A Rain , Thunderstorm Heavy Thunderstorms and Rain
5:21 PM 71.6 °F - 71.6 °F 100% 30.01 in 3.0 mi WNW 3.5 mph - N/A Rain , Thunderstorm Light Thunderstorms and Rain
5:35 PM 71.6 °F - 71.6 °F 100% 30.02 in 10.0 mi Variable 1.2 mph - N/A Thunderstorm Thunderstorm
5:41 PM 71.6 °F - 71.6 °F 100% 30.01 in 10.0 mi WNW 3.5 mph - N/A Thunderstorm Mostly Cloudy
5:58 PM 71.4 °F - 71.2 °F 99% 30.00 in 10.0 mi West 3.5 mph - 0.09 in Thunderstorm Mostly Cloudy
6:01 PM 71.6 °F - 71.6 °F 100% 30.01 in 10.0 mi West 4.6 mph - N/A Thunderstorm Light Drizzle
6:21 PM 69.8 °F - 69.8 °F 100% 30.02 in 10.0 mi West 4.6 mph - N/A   Mostly Cloudy
6:58 PM 68.9 °F - 68.5 °F 99% 30.02 in 10.0 mi NNW 4.6 mph - 0.00 in   Overcast
7:31 PM 68.0 °F - 68.0 °F 100% 30.11 in 10.0 mi South 19.6 mph 24.2 mph N/A Thunderstorm Thunderstorm
7:35 PM 68.0 °F - 68.0 °F 100% 30.09 in 0.8 mi South 23.0 mph 39.1 mph N/A Rain , Thunderstorm Heavy Thunderstorms and Rain
7:36 PM 68.0 °F - 68.0 °F 100% 30.09 in 0.8 mi South 20.7 mph 39.1 mph N/A Rain , Thunderstorm Heavy Thunderstorms and Rain
7:41 PM 64.4 °F - 64.4 °F 100% 30.09 in 0.2 mi Variable 5.8 mph 39.1 mph N/A Fog , Rain , Thunderstorm Heavy Thunderstorms and Rain